User: anonymous   Login
Location: Fort Wayne
(41.1310°N, 85.1290°W)
Time: 04:39:04
(UTC-04:00)
Language:

MetOp-A - Orbit

View from above orbital plane
View from above orbital plane
View from above satellite
View from above satellite

Ground track
Ground track

The orbit data is extracted from the following two-line orbital elements,

1 29499U 06044A   14294.78157495  .00000245  00000-0  13185-3 0  4956
2 29499 098.7103 352.7691 0002181 127.3614 018.2218 14.21504325415416
Epoch (UTC): 21 October 2014 18:45:28
Eccentricity: 0.0002181
inclination: 98.7103°
perigee height: 819 km
apogee height: 822 km
right ascension of ascending node: 352.7691°
argument of perigee: 127.3614°
revolutions per day: 14.21504325
mean anomaly at epoch: 18.2218°
orbit number at epoch: 41541

The dashed part of the orbit path shows where the satellite is in the earth's shadow,  

DLR